When you browse on this site, cookies collect data to enhance your experience and personalize the content and advertising you see.
Visit our Privacy Policy to learn more. By continuing to use the site, you agree to this use of cookies and data.
  • In Hungary
  • List of Countries
  • For 7 days
  • Water Temperature
  • Satellite Maps
  • Weather Map
  • News
  • Weather Widgets
  • user-avatar
    Login

    Hourly Weather Zobwe

    Today, 18 November, Sunday

    Time Temperature Precipitation Wind Pressure Humidity
    00:00 +28°C° 0.1 mm 1 mps 719 mmHg 60%
    01:00 +28°C° 0.1 mm 1 mps 719 mmHg 61%
    02:00 +27°C° 0 mm 1 mps 719 mmHg 62%
    03:00 +27°C° 0 mm 1 mps 719 mmHg 64%
    04:00 +27°C° 0 mm 1 mps 719 mmHg 65%
    05:00 +26°C° 0 mm 1 mps 719 mmHg 66%
    06:00 +28°C° 0.1 mm 1 mps 719 mmHg 61%
    07:00 +30°C° 0.1 mm 1 mps 720 mmHg 55%
    08:00 +32°C° 0 mm 1 mps 720 mmHg 52%
    09:00 +35°C° 0.5 mm 2 mps 720 mmHg 48%
    10:00 +36°C° 0.5 mm 2 mps 720 mmHg 45%
    11:00 +37°C° 0.5 mm 2 mps 720 mmHg 41%
    12:00 +37°C° 0.1 mm 2 mps 719 mmHg 41%
    13:00 +36°C° 0.1 mm 2 mps 718 mmHg 42%
    14:00 +36°C° 0 mm 2 mps 718 mmHg 42%
    15:00 +35°C° 0.3 mm 2 mps 718 mmHg 44%
    16:00 +35°C° 0.3 mm 2 mps 718 mmHg 46%
    17:00 +33°C° 0.3 mm 1 mps 717 mmHg 48%
    18:00 +32°C° 0.4 mm 1 mps 718 mmHg 53%
    19:00 +31°C° 0.4 mm 2 mps 718 mmHg 58%
    20:00 +29°C° 0.4 mm 2 mps 718 mmHg 64%
    21:00 +28°C° 1.5 mm 2 mps 719 mmHg 69%
    22:00 +28°C° 1.5 mm 2 mps 719 mmHg 74%
    23:00 +27°C° 1.5 mm 3 mps 719 mmHg 79%

    Tomorrow, 19 November, Monday

    Time Temperature Precipitation Wind Pressure Humidity
    00:00 +26°C° 3.5 mm 3 mps 719 mmHg 82%
    01:00 +26°C° 3.5 mm 3 mps 719 mmHg 85%
    02:00 +26°C° 3.5 mm 3 mps 719 mmHg 88%
    03:00 +25°C° 2.5 mm 3 mps 719 mmHg 89%
    04:00 +25°C° 2.5 mm 2 mps 719 mmHg 90%
    05:00 +25°C° 2.5 mm 2 mps 720 mmHg 91%
    06:00 +25°C° 2.4 mm 2 mps 720 mmHg 90%
    07:00 +25°C° 2.4 mm 2 mps 720 mmHg 89%
    08:00 +26°C° 2.4 mm 2 mps 720 mmHg 87%
    09:00 +26°C° 2.1 mm 2 mps 720 mmHg 86%
    10:00 +26°C° 2.1 mm 2 mps 720 mmHg 85%
    11:00 +27°C° 2.1 mm 2 mps 720 mmHg 83%
    12:00 +27°C° 1.1 mm 2 mps 720 mmHg 83%
    13:00 +27°C° 1.1 mm 2 mps 719 mmHg 82%
    14:00 +27°C° 1.1 mm 2 mps 719 mmHg 81%
    15:00 +26°C° 0.5 mm 3 mps 719 mmHg 82%
    16:00 +26°C° 0.5 mm 3 mps 719 mmHg 83%
    17:00 +26°C° 0.5 mm 3 mps 719 mmHg 83%
    18:00 +25°C° 0.3 mm 2 mps 719 mmHg 85%
    19:00 +25°C° 0.3 mm 2 mps 720 mmHg 86%
    20:00 +25°C° 0.3 mm 2 mps 720 mmHg 87%
    21:00 +25°C° 0 mm 2 mps 720 mmHg 88%
    22:00 +24°C° 0 mm 2 mps 720 mmHg 88%
    23:00 +24°C° 0 mm 2 mps 720 mmHg 89%

    Day after tomorrow, 20 November, Tuesday

    Time Temperature Precipitation Wind Pressure Humidity
    00:00 +24°C° 0 mm 2 mps 720 mmHg 88%
    01:00 +24°C° 0 mm 1 mps 719 mmHg 88%
    02:00 +24°C° 0 mm 1 mps 719 mmHg 88%
    03:00 +23°C° 0 mm 1 mps 719 mmHg 89%
    04:00 +23°C° 0 mm 1 mps 719 mmHg 89%
    05:00 +23°C° 0 mm 1 mps 719 mmHg 89%
    06:00 +25°C° 0 mm 1 mps 720 mmHg 82%
    07:00 +27°C° 0 mm 1 mps 720 mmHg 74%
    08:00 +28°C° 0 mm 1 mps 721 mmHg 67%
    09:00 +30°C° 0 mm 1 mps 721 mmHg 63%
    10:00 +31°C° 0 mm 1 mps 720 mmHg 59%
    11:00 +32°C° 0 mm 1 mps 720 mmHg 55%
    12:00 +32°C° 0.2 mm 1 mps 719 mmHg 54%
    13:00 +33°C° 0.2 mm 1 mps 719 mmHg 53%
    14:00 +33°C° 0.2 mm 1 mps 718 mmHg 51%
    15:00 +32°C° 0.6 mm 1 mps 718 mmHg 55%
    16:00 +32°C° 0.6 mm 1 mps 718 mmHg 59%
    17:00 +31°C° 0.6 mm 1 mps 717 mmHg 63%
    18:00 +30°C° 0.3 mm 1 mps 718 mmHg 67%
    19:00 +28°C° 0.3 mm 1 mps 718 mmHg 71%
    20:00 +27°C° 0.3 mm 1 mps 719 mmHg 76%
    21:00 +27°C° 0 mm 1 mps 719 mmHg 77%
    22:00 +27°C° 0 mm 1 mps 719 mmHg 78%
    23:00 +26°C° 0 mm 1 mps 719 mmHg 79%

    21 November, Wednesday

    Time Temperature Precipitation Wind Pressure Humidity
    00:00 +26°C° 0 mm 1 mps 718 mmHg 80%
    01:00 +26°C° 0 mm 1 mps 718 mmHg 80%
    02:00 +26°C° 0 mm 1 mps 717 mmHg 81%
    03:00 +25°C° 0 mm 1 mps 717 mmHg 81%
    04:00 +25°C° 0 mm 1 mps 718 mmHg 82%
    05:00 +25°C° 0 mm 1 mps 718 mmHg 82%
    06:00 +27°C° 0 mm 1 mps 718 mmHg 76%
    07:00 +28°C° 0 mm 1 mps 719 mmHg 70%
    08:00 +30°C° 0 mm 2 mps 719 mmHg 64%
    09:00 +31°C° 0.2 mm 2 mps 719 mmHg 60%
    10:00 +32°C° 0.2 mm 2 mps 719 mmHg 57%
    11:00 +34°C° 0.2 mm 3 mps 719 mmHg 54%
    12:00 +35°C° 0.3 mm 2 mps 718 mmHg 52%
    13:00 +35°C° 0.3 mm 2 mps 717 mmHg 50%
    14:00 +36°C° 0.3 mm 2 mps 716 mmHg 48%
    15:00 +35°C° 0.2 mm 2 mps 716 mmHg 51%
    16:00 +34°C° 0.2 mm 2 mps 716 mmHg 53%
    17:00 +33°C° 0.2 mm 1 mps 716 mmHg 56%
    18:00 +31°C° 0.1 mm 1 mps 717 mmHg 60%
    19:00 +30°C° 0.1 mm 1 mps 717 mmHg 64%
    20:00 +29°C° 0.1 mm 1 mps 718 mmHg 68%
    21:00 +29°C° 0 mm 1 mps 718 mmHg 69%
    22:00 +28°C° 0 mm 1 mps 718 mmHg 70%
    23:00 +28°C° 0 mm 1 mps 718 mmHg 71%

    22 November, Thursday

    Time Temperature Precipitation Wind Pressure Humidity
    00:00 +28°C° 0 mm 1 mps 717 mmHg 72%
    01:00 +27°C° 0 mm 1 mps 717 mmHg 73%
    02:00 +27°C° 0 mm 1 mps 716 mmHg 74%
    03:00 +27°C° 0 mm 1 mps 717 mmHg 76%
    04:00 +26°C° 0 mm 1 mps 717 mmHg 77%
    05:00 +26°C° 0 mm 1 mps 717 mmHg 78%
    06:00 +28°C° 0 mm 1 mps 718 mmHg 72%
    07:00 +30°C° 0 mm 2 mps 719 mmHg 65%
    08:00 +31°C° 0 mm 2 mps 719 mmHg 59%
    09:00 +34°C° 0 mm 2 mps 719 mmHg 54%
    10:00 +35°C° 0 mm 2 mps 719 mmHg 50%
    11:00 +36°C° 0 mm 2 mps 718 mmHg 46%
    12:00 +37°C° 0 mm 2 mps 717 mmHg 44%
    13:00 +37°C° 0 mm 2 mps 717 mmHg 42%
    14:00 +37°C° 0 mm 2 mps 716 mmHg 40%
    15:00 +37°C° 0 mm 2 mps 716 mmHg 42%
    16:00 +36°C° 0 mm 2 mps 716 mmHg 44%
    17:00 +34°C° 0 mm 1 mps 716 mmHg 46%
    18:00 +33°C° 0 mm 1 mps 717 mmHg 50%
    19:00 +32°C° 0 mm 1 mps 717 mmHg 54%
    20:00 +30°C° 0 mm 1 mps 718 mmHg 57%
    21:00 +30°C° 0 mm 1 mps 718 mmHg 59%
    22:00 +29°C° 0 mm 1 mps 718 mmHg 61%
    23:00 +29°C° 0 mm 1 mps 718 mmHg 62%

    23 November, Friday

    Time Temperature Precipitation Wind Pressure Humidity
    00:00 +27°C° 0 mm 0 mps 717 mmHg 63%
    01:00 +26°C° 0 mm 0 mps 717 mmHg 65%
    02:00 +26°C° 0 mm 0 mps 717 mmHg 66%
    03:00 +25°C° 0 mm 0 mps 717 mmHg 67%
    04:00 +27°C° 0 mm 1 mps 718 mmHg 68%
    05:00 +27°C° 0 mm 1 mps 718 mmHg 69%
    06:00 +29°C° 0 mm 1 mps 719 mmHg 65%
    07:00 +30°C° 0 mm 1 mps 720 mmHg 60%
    08:00 +32°C° 0 mm 1 mps 720 mmHg 56%
    09:00 +34°C° 0.1 mm 2 mps 720 mmHg 51%
    10:00 +36°C° 0.1 mm 2 mps 719 mmHg 46%
    11:00 +37°C° 0.1 mm 2 mps 719 mmHg 42%
    12:00 +37°C° 0 mm 2 mps 718 mmHg 42%
    13:00 +36°C° 0 mm 2 mps 718 mmHg 43%
    14:00 +35°C° 0 mm 1 mps 717 mmHg 43%
    15:00 +35°C° 0 mm 2 mps 717 mmHg 46%
    16:00 +34°C° 0 mm 2 mps 717 mmHg 48%
    17:00 +34°C° 0 mm 2 mps 717 mmHg 50%
    18:00 +32°C° 0.1 mm 2 mps 718 mmHg 54%
    19:00 +31°C° 0.1 mm 1 mps 718 mmHg 58%
    20:00 +30°C° 0.1 mm 1 mps 719 mmHg 62%
    21:00 +29°C° 0 mm 1 mps 719 mmHg 63%
    22:00 +29°C° 0 mm 1 mps 718 mmHg 64%
    23:00 +28°C° 0 mm 1 mps 718 mmHg 65%
    Show more